Regional Weather Roundup
Issued by NWS

Home | Current Version | Previous Version | Text Only | Print | Product List | Glossary Off
Versions: 1 2 3 4 5 6 7 8 9 10 11 12 13 14 15 16 17 18 19 20 21 22 23 24 25 26 27 28 29 30 31 32 33 34 35 36 37 38 39 40 41 42 43 44 45 46 47 48 49 50

000
ASUS43 KDMX 252104
RWRIA

WEATHER ROUNDUP FOR IOWA
NATIONAL WEATHER SERVICE DES MOINES IA
  ISSUED BY NWS QUAD CITIES IA IL
300 PM CST SUN JAN 25 2015

NOTE: "FAIR" INDICATES FEW OR NO CLOUDS BELOW 12,000 FEET WITH NO
SIGNIFICANT WEATHER AND/OR OBSTRUCTIONS TO VISIBILITY.

* - THESE STATIONS ARE NOT NWS STATIONS...THUS NOT UNDER NWS
QUALITY CONTROL.  THEY ALSO DO NOT REPORT WEATHER SUCH
AS PRECIPITATION OR FOG.

IAZ001>003-012>014-020>022-031>034-043>046-252200-
   NORTHWEST IOWA

CITY           SKY/WX    TMP DP  RH WIND       PRES   REMARKS
CARROLL *      CLOUDY    34  30  86 N13       30.00R WCI  25
CHEROKEE *     CLOUDY    33  31  92 NE7       30.03R WCI  27
DENNISON *     PTSUNNY   36  32  87 N13G20    30.00R WCI  27
LE MARS *      CLOUDY    37  34  87 N8        30.04R WCI  31
ORANGE CITY *  CLOUDY    36  30  80 NW7       30.02R WCI  30
SIOUX CITY     CLOUDY    39  33  79 NW10      30.03R WCI  32
SPENCER        PTSUNNY   33  26  75 N10       30.02R WCI  25
$$

IAZ055>058-069>071-079>083-090>094-252200-
   SOUTHWEST IOWA

CITY           SKY/WX    TMP DP  RH WIND       PRES   REMARKS
ATLANTIC *     CLOUDY    37  30  75 N20       29.98R WCI  27
AUDUBON *      PTSUNNY   34  30  86 N14       30.00R WCI  24
CLARINDA *     CLOUDY    37  32  81 N16G25    29.99R WCI  28
COUNCIL BLFS * CLOUDY    39  32  75 N15       29.99R WCI  31
CRESTON *      CLOUDY    36  32  87 N20G25    29.95R WCI  25
HARLAN *       CLOUDY    37  36  93 N15       30.03R WCI  28
LAMONI         CLOUDY    33  29  85 N12       29.93R WCI  24
RED OAK *      CLOUDY    39  30  70 N21G26    30.00R WCI  29
SHENANDOAH *   CLOUDY    39  32  75 N18G25    30.01R WCI  30
$$

IAZ047>049-059>061-072>074-084-252200-
   CENTRAL IOWA

CITY           SKY/WX    TMP DP  RH WIND       PRES   REMARKS
AMES           CLOUDY    34  28  79 N15       29.97R WCI  24
ANKENY *       CLOUDY    34  30  86 N12G18    29.98R WCI  25
BOONE *        CLOUDY    32  32 100 N15       29.96R WCI  22
CHARITON *     CLOUDY    32  28  86 N14G23    29.93R WCI  22
DES MOINES     CLOUDY    35  29  78 N12       29.97R WCI  27
GRINNELL *     CLOUDY    30  27  86 N10G17    29.94R WCI  21
KNOXVILLE *    CLOUDY    30  27  86 NE16      29.93R WCI  19
MARSHALLTOWN   SUNNY     32  27  81 N12       29.95R WCI  23
PELLA *        CLOUDY    32  28  86 N13       29.96R WCI  22
PERRY *          N/A     34  31  90 N15       29.99R WCI  24
$$

IAZ004>006-015-016-023>025-035-036-252200-
   NORTH CENTRAL IOWA

CITY           SKY/WX    TMP DP  RH WIND       PRES   REMARKS
ALGONA *       CLOUDY    30  23  74 N9G15     30.01R WCI  22
CLARION *      CLOUDY    30  30 100 N10       29.99R WCI  21
ESTHERVILLE    CLOUDY    27  24  89 N10       30.02R WCI  17
FORT DODGE *   CLOUDY    32  27  80 N7        30.00R WCI  26
MASON CITY     CLOUDY    29  26  89 N8        29.99R WCI  21
WEBSTER CITY * CLOUDY    32  32 100 N13       29.97R WCI  22
IOWA FALLS *   MOCLDY    33  29  83 N12       29.97R WCI  24
$$

IAZ007>011-017>019-026>030-037>042-050>054-066-252200-
   NORTHEAST IOWA

CITY           SKY/WX    TMP DP  RH WIND       PRES   REMARKS
CEDAR RAPIDS   CLOUDY    28  22  78 N17       29.91R WCI  16
CHARLES CITY * CLOUDY    30  28  93 N10       29.97R WCI  21
CLINTON *      CLOUDY    27  19  74 NE20G26   29.91R WCI  13
DECORAH *      MOSUNNY   30  19  64 N10       29.96R WCI  21
DUBUQUE        SUNNY     25  17  72 NE21G29   29.90R WCI  11
MONTICELLO *   MOSUNNY   28  21  74 NE17      29.93R WCI  16
OELWEIN *      PTSUNNY   30  23  74 NE12      29.94R WCI  21
WATERLOO       PTSUNNY   32  26  78 N10       29.96R WCI  24
$$

IAZ064-065-067-068-078-252200-
   EAST CENTRAL IOWA

CITY           SKY/WX    TMP DP  RH WIND       PRES   REMARKS
DAVENPORT      CLOUDY    28  20  71 N22       29.89R WCI  14
IOWA CITY      CLOUDY    29  23  78 N17       29.93R WCI  17
MT. PLEASANT * CLOUDY    29  27  92 N18G24    29.89R WCI  17
MUSCATINE *    CLOUDY    30  25  80 N18       29.90R WCI  18
QUAD CITIES    CLOUDY    30  22  72 NE8       29.87R WCI  22
$$

IAZ062-063-075>077-085>089-095>099-252200-
   SOUTHEAST IOWA

CITY           SKY/WX    TMP DP  RH WIND       PRES   REMARKS
BURLINGTON     CLOUDY    31  28  89 N20       29.85R WCI  19
FAIRFIELD *    CLOUDY    30  25  80 N17G24    29.90R WCI  18
FORT MADISON * CLOUDY    32  28  86 N15G22    29.86R WCI  22
KEOKUK *       FLURRIES  32  30  93 N13G23    29.83R WCI  22
OTTUMWA        CLOUDY    30  26  85 N13G22    29.91R WCI  20
WASHINGTON *   CLOUDY    30  30 100 N16       29.90R WCI  19
$$

ABBREVIATIONS USED IN REMARKS
   TC - TEMPERATURES IN CELSIUS
  WCI - WIND CHILL INDEX
   HX - HEAT INDEX
  VSB - VISIBILITY
$$


USA.gov is the U.S. government's official web portal to all federal, state and local government web resources and services.